Location: *
(50.2903°S, 172.5375°W)
Time: 04:38:30
(UTC+00:00)

Aureole 1 - Pass Details

Date: 17 November 2019
Orbit: 386 x 1568 km, 74.0° (Epoch: 09 December)

Event Time Altitude Azimuth Distance (km) Brightness Sun altitude
Exits shadow 13:27:50 32° 350° (N) 709 4.9 -14.8°
Maximum altitude 13:29:04 73° 67° (ENE) 427 4.2 -14.7°
Drops below altitude 10° 13:32:20 10° 153° (SSE) 1,548 8.5 -14.4°
Sets 13:34:32 0° 154° (SSE) 2,517 10.1 -14.2°
